BAW8DS KLAX-EGLL

Flight info

Callsign BAW8DS
Flight time N/A
Altitude 35000
Route ORCKA5 LAS Q70 BLIPP Q842 WINEN DCT DTA DCT FFU DCT RECAP DCT DIK Q945 SEGAP DCT KAIIN/N0488F370 DCT 56N090W 60N082W 65N070W/M082F370 DCT DARUB DCT 67N050W/M083F390 67N040W 65N030W 63N020W DCT BALIX/N0474F390 DCT NINEX DCT AKOMU DCT VAMEB DCT NUGRA NUGRA2H
Aircraft B77W/H-SDE1E3FGHIJ3J4J5J6M1M2P2RWXYZ/LB1D1

Departure

Time N/A
Airport Los Angeles International Airport (KLAX)

Arrival

Time 2026-05-04 09:44
Airport London Heathrow Airport (EGLL)
Time Latitude Longitude Altitude Speed Heading
2026-05-04 08:31 57.87216 -7.93692 39017 ft 502 kts 142°
2026-05-04 08:33 57.65571 -7.60780 39019 ft 502 kts 142°
2026-05-04 08:35 57.43821 -7.28228 39019 ft 501 kts 142°
2026-05-04 08:35 57.38373 -7.20155 39023 ft 501 kts 142°
2026-05-04 08:37 57.19282 -6.92110 39053 ft 500 kts 142°
2026-05-04 08:38 57.13823 -6.84161 39052 ft 500 kts 142°
2026-05-04 08:38 57.08358 -6.76234 39049 ft 500 kts 142°
2026-05-04 08:40 56.86524 -6.44864 39058 ft 499 kts 142°
2026-05-04 08:41 56.81049 -6.37072 39074 ft 499 kts 142°
2026-05-04 08:41 56.75572 -6.29308 39073 ft 499 kts 142°
2026-05-04 08:42 56.70091 -6.21567 39059 ft 498 kts 142°
2026-05-04 08:42 56.64610 -6.13855 39070 ft 498 kts 142°
2026-05-04 08:43 56.59125 -6.06167 39071 ft 498 kts 142°
2026-05-04 08:43 56.53643 -5.98512 39060 ft 497 kts 142°
2026-05-04 08:44 56.49085 -5.92170 39080 ft 497 kts 142°
2026-05-04 08:46 56.27177 -5.61956 39072 ft 493 kts 142°
2026-05-04 08:46 56.21718 -5.54497 39069 ft 492 kts 142°
2026-05-04 08:47 56.16266 -5.47073 39073 ft 492 kts 142°
2026-05-04 08:47 56.10814 -5.39678 39070 ft 491 kts 142°
2026-05-04 08:48 56.05369 -5.32319 39065 ft 490 kts 142°
2026-05-04 08:48 55.99928 -5.24991 39071 ft 489 kts 142°
2026-05-04 08:49 55.94491 -5.17697 39068 ft 489 kts 142°
2026-05-04 08:50 55.75509 -4.92430 39071 ft 487 kts 143°
2026-05-04 08:51 55.70075 -4.85255 39068 ft 487 kts 143°
2026-05-04 08:51 55.64643 -4.78108 39070 ft 486 kts 143°
2026-05-04 08:52 55.59208 -4.70983 39077 ft 486 kts 143°
2026-05-04 08:52 55.53770 -4.63877 39076 ft 486 kts 143°
2026-05-04 08:54 55.32083 -4.35709 39056 ft 482 kts 143°
2026-05-04 08:55 55.26676 -4.28779 39058 ft 481 kts 144°
2026-05-04 08:55 55.21289 -4.21949 39055 ft 481 kts 144°
2026-05-04 09:01 54.64061 -3.50158 39074 ft 483 kts 144°
2026-05-04 09:01 54.58623 -3.43468 39076 ft 483 kts 144°
2026-05-04 09:02 54.53156 -3.36765 39067 ft 482 kts 144°
2026-05-04 09:02 54.47689 -3.30084 39069 ft 482 kts 144°
2026-05-04 09:03 54.42224 -3.23427 39069 ft 481 kts 144°
2026-05-04 09:03 54.36763 -3.16797 39062 ft 481 kts 144°
2026-05-04 09:04 54.31297 -3.10183 39067 ft 481 kts 144°
2026-05-04 09:04 54.25838 -3.03597 39066 ft 480 kts 144°
2026-05-04 09:05 54.20367 -2.97018 39070 ft 480 kts 145°
2026-05-04 09:05 54.14647 -2.91163 39063 ft 480 kts 155°
2026-05-04 09:06 54.08487 -2.86780 39073 ft 480 kts 158°
2026-05-04 09:08 53.83305 -2.71896 39072 ft 479 kts 163°
2026-05-04 09:08 53.76936 -2.68565 39071 ft 479 kts 163°
2026-05-04 09:09 53.70605 -2.65242 39068 ft 479 kts 163°
2026-05-04 09:09 53.64238 -2.61908 39068 ft 479 kts 163°
2026-05-04 09:10 53.57863 -2.58582 39069 ft 480 kts 163°
2026-05-04 09:10 53.51490 -2.55270 39072 ft 480 kts 163°
2026-05-04 09:11 53.45112 -2.51965 39070 ft 480 kts 163°
2026-05-04 09:11 53.38735 -2.48672 39076 ft 480 kts 163°
2026-05-04 09:12 53.32353 -2.45386 39077 ft 480 kts 163°
2026-05-04 09:14 53.06884 -2.32372 38162 ft 478 kts 163°
2026-05-04 09:14 53.03670 -2.30720 37718 ft 479 kts 160°
2026-05-04 09:14 53.00675 -2.28478 37262 ft 479 kts 149°
2026-05-04 09:14 52.97832 -2.25592 36519 ft 479 kts 146°
2026-05-04 09:15 52.95053 -2.22542 35835 ft 477 kts 145°
2026-05-04 09:15 52.92322 -2.19493 35280 ft 472 kts 145°
2026-05-04 09:15 52.89599 -2.16492 34711 ft 468 kts 145°
2026-05-04 09:15 52.86883 -2.13560 34177 ft 464 kts 146°
2026-05-04 09:17 52.65763 -1.91603 29569 ft 434 kts 147°
2026-05-04 09:18 52.63218 -1.88971 28999 ft 429 kts 147°
2026-05-04 09:18 52.60673 -1.86343 28431 ft 425 kts 147°
2026-05-04 09:18 52.58216 -1.83822 27898 ft 420 kts 148°
2026-05-04 09:18 52.55744 -1.81304 27370 ft 416 kts 148°
2026-05-04 09:19 52.53302 -1.78806 26827 ft 412 kts 148°
2026-05-04 09:19 52.50881 -1.76326 26304 ft 409 kts 149°
2026-05-04 09:19 52.48473 -1.73885 25807 ft 405 kts 149°
2026-05-04 09:19 52.46096 -1.71443 25303 ft 401 kts 149°
2026-05-04 09:20 52.43740 -1.69019 24794 ft 399 kts 149°
2026-05-04 09:20 52.41395 -1.66627 24304 ft 396 kts 150°
2026-05-04 09:20 52.39060 -1.64247 23807 ft 394 kts 150°
2026-05-04 09:20 52.36735 -1.61882 23264 ft 392 kts 150°
2026-05-04 09:21 52.34424 -1.59537 22700 ft 389 kts 150°
2026-05-04 09:21 52.32129 -1.57211 22224 ft 386 kts 150°
2026-05-04 09:21 52.29859 -1.54914 21735 ft 383 kts 150°
2026-05-04 09:21 52.27606 -1.52634 21256 ft 380 kts 150°
2026-05-04 09:22 52.25367 -1.50372 20780 ft 377 kts 150°
2026-05-04 09:22 52.23141 -1.48127 20307 ft 375 kts 150°
2026-05-04 09:22 52.20955 -1.45841 19888 ft 372 kts 146°
2026-05-04 09:22 52.18942 -1.43229 19511 ft 368 kts 141°
2026-05-04 09:23 52.17037 -1.40493 19145 ft 363 kts 140°
2026-05-04 09:23 52.15169 -1.37765 18785 ft 358 kts 140°
2026-05-04 09:23 52.13316 -1.35086 18416 ft 354 kts 140°
2026-05-04 09:23 52.11472 -1.32461 18034 ft 351 kts 140°
2026-05-04 09:25 51.98702 -1.14700 15547 ft 345 kts 141°
2026-05-04 09:25 51.96872 -1.12175 15201 ft 345 kts 141°
2026-05-04 09:26 51.95050 -1.09663 14804 ft 344 kts 141°
2026-05-04 09:26 51.93226 -1.07149 14346 ft 343 kts 141°
2026-05-04 09:26 51.91415 -1.04655 13917 ft 341 kts 141°
2026-05-04 09:26 51.89606 -1.02165 13442 ft 340 kts 141°
2026-05-04 09:27 51.87811 -0.99700 12969 ft 338 kts 141°
2026-05-04 09:27 51.86033 -0.97245 12523 ft 332 kts 139°
2026-05-04 09:27 51.84596 -0.94362 12077 ft 328 kts 120°
2026-05-04 09:27 51.83607 -0.91081 11701 ft 324 kts 117°
2026-05-04 09:28 51.82650 -0.87821 11291 ft 322 kts 117°
2026-05-04 09:28 51.81685 -0.84573 10909 ft 319 kts 117°
2026-05-04 09:28 51.80718 -0.81354 10528 ft 317 kts 117°
2026-05-04 09:28 51.79750 -0.78160 10142 ft 316 kts 117°
2026-05-04 09:29 51.78785 -0.74998 9794 ft 313 kts 117°
2026-05-04 09:29 51.77839 -0.71917 9658 ft 295 kts 118°
2026-05-04 09:29 51.76964 -0.69057 9122 ft 279 kts 118°
2026-05-04 09:29 51.76112 -0.66288 8509 ft 270 kts 117°
2026-05-04 09:30 51.75561 -0.64496 8272 ft 270 kts 118°
2026-05-04 09:30 51.74720 -0.61773 7899 ft 271 kts 117°
2026-05-04 09:30 51.73874 -0.59038 7600 ft 263 kts 117°
2026-05-04 09:30 51.73087 -0.56498 7219 ft 250 kts 117°
2026-05-04 09:31 51.72302 -0.54049 7099 ft 241 kts 122°
2026-05-04 09:31 51.71399 -0.51814 7045 ft 234 kts 125°
2026-05-04 09:31 51.70453 -0.49607 7058 ft 240 kts 126°
2026-05-04 09:31 51.69501 -0.47406 7059 ft 244 kts 126°
2026-05-04 09:32 51.68529 -0.45167 6932 ft 244 kts 126°
2026-05-04 09:32 51.67555 -0.42929 6685 ft 243 kts 126°
2026-05-04 09:34 51.60998 -0.28093 5179 ft 214 kts 126°
2026-05-04 09:34 51.60130 -0.26160 4924 ft 212 kts 126°
2026-05-04 09:34 51.59274 -0.24264 4742 ft 204 kts 124°
2026-05-04 09:34 51.58640 -0.22303 4582 ft 193 kts 112°
2026-05-04 09:35 51.58144 -0.20310 4322 ft 191 kts 111°
2026-05-04 09:35 51.57672 -0.18336 4063 ft 187 kts 107°
2026-05-04 09:35 51.57323 -0.16382 3995 ft 178 kts 105°
2026-05-04 09:35 51.56967 -0.14423 4006 ft 188 kts 106°
2026-05-04 09:37 51.52578 -0.02468 4021 ft 191 kts 183°
2026-05-04 09:37 51.51318 -0.03153 4048 ft 196 kts 207°
2026-05-04 09:38 51.50185 -0.04407 3829 ft 197 kts 225°
2026-05-04 09:38 51.49305 -0.06031 3699 ft 190 kts 230°
2026-05-04 09:38 51.48477 -0.07662 3598 ft 187 kts 233°
2026-05-04 09:38 51.48003 -0.09587 3513 ft 189 kts 264°
2026-05-04 09:39 51.47916 -0.11717 3479 ft 195 kts 267°
2026-05-04 09:39 51.47870 -0.13896 3338 ft 195 kts 269°
2026-05-04 09:39 51.47852 -0.16048 3199 ft 191 kts 270°
2026-05-04 09:39 51.47844 -0.18133 3106 ft 179 kts 270°
2026-05-04 09:40 51.47839 -0.20068 2958 ft 172 kts 270°
2026-05-04 09:40 51.47834 -0.21987 2746 ft 172 kts 270°
2026-05-04 09:40 51.47827 -0.23893 2498 ft 170 kts 270°
2026-05-04 09:40 51.47820 -0.25757 2269 ft 165 kts 270°
2026-05-04 09:41 51.47815 -0.27568 2062 ft 165 kts 270°
2026-05-04 09:42 51.47776 -0.39990 543 ft 153 kts 272°
2026-05-04 09:43 51.47776 -0.41678 352 ft 153 kts 272°
2026-05-04 09:43 51.47771 -0.43376 137 ft 151 kts 271°
2026-05-04 09:43 51.47763 -0.44960 94 ft 125 kts 269°
2026-05-04 09:43 51.47758 -0.46055 94 ft 67 kts 270°
2026-05-04 09:44 51.47735 -0.46582 97 ft 37 kts 255°
2026-05-04 09:44 51.47665 -0.46831 97 ft 18 kts 234°
2026-05-04 09:44 51.47615 -0.46886 95 ft 2 kts 206°
2026-05-04 09:46 51.47579 -0.47677 95 ft 14 kts 269°
2026-05-04 09:46 51.47576 -0.47827 94 ft 12 kts 259°
2026-05-04 09:46 51.47503 -0.47875 93 ft 13 kts 182°
2026-05-04 09:47 51.47410 -0.47875 92 ft 14 kts 179°
2026-05-04 09:47 51.47310 -0.47873 95 ft 15 kts 179°
2026-05-04 09:49 51.46979 -0.48024 95 ft 0 kts 269°